Temp
59 58 53 60 62 60 58 55 55 56 57 57 59 59 61 51 52 52 51 51 51 50 50 51 51 52 54 55 54 54 55 57 61 62 60 57 55 54 54 54 54 54 56 56
54 52 62 58 57 56 55 54 55 55 55 55 57 56 60 50 50 52 51 51 51 50 51 50 51 52 52 52 54 55 56 57 58 58 57 57 54 53 53 52 51 52 52 53
56 58 58 55 51 51 53 52 54 53 52 53 51 52 50 45 46 47 49 51 51 52 50 50 50 51 51 50 50 51 52 54 55 56 55 54 55 55 53 51 49 49 50 50
55 56 52 52 52 54 50 54 52 50 49 46 50 47 50 47 44 44 46 48 49 49 49 49 49 49 49 48 50 51 51 52 53 54 54 54 53 49 49 49 48 47 48 49
53 48 49 49 52 53 52 52 51 49 48 46 46 45 53 44 42 43 46 48 50 50 49 48 47 47 47 49 49 50 50 50 51 52 52 51 48 48 49 49 46 46 47 47
53 53 53 55 50 53 50 49 46 46 46 38 47 45 50 44 48 46 47 47 48 47 47 46 46 47 47 47 48 49 48 47 49 50 50 49 47 47 47 47 45 45 46 46
49 48 51 52 48 49 50 48 40 36 36 37 40 39 52 50 47 47 46 46 47 47 46 45 45 45 45 45 45 47 48 46 47 48 48 48 48 47 46 46 45 45 45 44
43 41 47 52 53 48 46 50 41 30 32 38 36 37 48 46 46 46 51 49 47 46 46 45 46 45 45 45 46 46 45 44 46 46 45 46 46 46 46 45 45 44 43 43
42 42 49 49 50 53 45 41 49 34 28 34 43 44 49 41 41 42 45 45 44 45 45 45 45 46 45 44 44 45 44 44 45 45 45 45 45 44 43 43 44 43 43 42
48 40 44 45 49 47 47 52 39 41 30 30 36 37 47 39 41 39 40 42 44 45 44 45 45 45 45 45 45 45 45 44 44 44 45 44 43 44 43 43 41 41 40 40
48 45 40 43 43 45 41 42 42 46 40 35 34 40 51 50 47 42 43 45 46 45 45 45 45 46 45 45 44 44 43 42 42 43 43 42 42 42 42 41 40 40 39 38
50 43 36 40 44 44 50 47 47 41 32 36 35 42 45 47 49 48 46 46 48 47 47 47 46 45 44 44 44 44 44 43 44 43 42 42 41 41 40 39 39 38 37 36
49 39 32 34 41 41 40 43 47 46 37 33 34 40 44 43 44 47 47 46 46 46 47 47 46 45 45 44 43 44 43 43 43 42 42 41 41 40 39 38 37 36 36 34
52 42 38 38 44 46 37 42 42 42 37 39 38 44 41 44 44 45 46 47 46 46 47 47 45 45 45 45 44 44 44 44 42 42 41 40 40 40 39 37 35 34 33 32
47 36 43 46 41 43 41 41 41 40 45 40 45 43 47 48 47 48 50 48 46 45 46 46 46 45 45 44 44 44 45 43 42 41 40 40 40 38 36 33 32 31 30 29
40 36 41 37 39 37 36 42 42 43 45 46 47 44 54 52 49 47 47 45 44 45 46 45 45 45 43 43 43 43 43 42 41 40 39 40 37 34 32 30 28 28 27 26
37 37 32 31 36 30 28 35 40 43 46 47 40 46 42 41 44 46 46 45 45 45 45 44 44 44 43 42 43 42 42 42 38 37 36 34 33 30 29 28 26 25 24 24
34 34 33 24 26 23 36 37 44 41 42 42 37 36 41 44 45 45 47 45 44 44 44 44 44 44 42 43 42 42 40 38 36 34 32 31 29 27 26 25 24 23 23 21
31 32 24 23 24 32 28 33 35 36 38 39 39 38 38 36 41 40 42 44 45 44 44 45 45 43 41 40 40 37 35 36 34 33 31 29 26 23 24 21 22 22 20 20
30 31 32 23 25 24 35 32 35 40 32 35 37 34 33 36 35 42 41 41 41 42 42 42 41 39 38 38 36 34 34 32 32 32 31 28 24 20 19 20 19 19 18 17
26 26 27 25 26 28 34 32 36 28 33 32 36 35 34 36 41 42 41 39 41 40 40 39 39 37 37 34 33 33 32 31 34 29 26 23 21 18 19 17 17 16 15 15
28 26 25 24 24 23 33 31 33 36 33 33 35 35 35 37 37 38 40 39 38 38 37 38 34 34 34 32 31 32 30 32 26 24 22 19 16 18 16 13 14 12 12 11
26 30 28 31 32 31 35 34 37 37 35 34 36 36 39 36 38 38 38 37 37 37 34 32 33 32 30 29 30 29 30 25 22 19 16 15 14 14 14 12 12 14 13 13
28 30 30 30 30 31 34 33 36 37 38 37 38 36 36 36 36 34 34 34 34 33 31 29 28 28 29 27 26 29 23 22 16 16 15 13 12 13 12 14 14 14 14 14
30 30 26 26 29 32 33 34 36 36 36 34 33 34 36 35 32 33 32 31 32 31 29 27 28 29 30 26 24 21 19 16 16 15 14 15 15 13 15 14 15 14 15 14
31 28 28 28 34 36 37 38 37 35 34 34 34 31 31 32 33 31 30 32 30 29 27 25 27 27 27 22 19 16 15 15 15 15 14 16 16 15 14 14 13 15 17 18
MSLP
1018.53 1018.23 1017.20 1016.61 1016.78 1017.04 1016.99 1017.10 1017.02 1017.51 1018.09 1018.20 1017.97 1018.33 1019.32 1021.39 1022.18 1022.75 1023.23 1023.68 1024.08 1024.49 1024.93 1025.09 1025.08 1025.00 1024.79 1024.66 1024.41 1024.17 1023.96 1023.87 1023.54 1023.64 1024.08 1024.58 1025.11 1025.90 1026.41 1026.83 1026.96 1026.84 1026.51 1026.27
1018.91 1017.51 1016.70 1017.28 1017.57 1017.52 1017.54 1017.44 1017.31 1017.88 1018.40 1018.64 1018.17 1018.17 1019.21 1021.00 1021.92 1022.69 1023.34 1023.86 1024.32 1024.77 1024.99 1025.34 1025.37 1025.28 1025.24 1025.14 1024.99 1024.85 1024.70 1024.54 1024.37 1024.41 1024.75 1025.33 1026.26 1026.98 1027.30 1027.74 1027.95 1027.86 1027.74 1027.49
1017.19 1017.04 1017.08 1017.52 1017.99 1018.02 1017.72 1017.56 1017.53 1017.94 1018.67 1018.83 1018.73 1017.85 1018.97 1020.98 1022.21 1023.07 1023.70 1024.09 1024.63 1024.86 1025.16 1025.55 1025.78 1025.73 1025.78 1025.84 1025.71 1025.52 1025.38 1025.20 1025.13 1025.18 1025.49 1025.87 1026.20 1026.82 1027.48 1028.18 1028.73 1029.02 1028.90 1028.71
1017.54 1017.40 1017.65 1017.78 1017.75 1017.92 1017.68 1017.82 1018.16 1018.50 1018.91 1018.46 1018.91 1017.13 1018.01 1019.80 1021.49 1022.65 1023.45 1024.06 1024.62 1025.29 1025.73 1026.11 1026.24 1026.25 1026.42 1026.53 1026.44 1026.17 1026.07 1026.08 1026.09 1026.16 1025.91 1025.90 1026.30 1027.08 1028.20 1028.57 1028.95 1029.62 1029.65 1029.63
1016.70 1017.34 1017.55 1017.49 1017.24 1017.90 1017.85 1018.24 1018.59 1018.82 1018.80 1019.00 1018.84 1018.87 1017.33 1019.33 1020.45 1021.58 1022.65 1023.56 1024.37 1025.20 1025.87 1026.41 1026.71 1027.02 1027.18 1027.19 1027.10 1026.82 1026.61 1026.56 1026.62 1026.74 1026.80 1026.94 1027.40 1028.15 1028.73 1029.12 1029.45 1029.73 1030.20 1030.19
1017.06 1017.54 1017.52 1017.32 1017.90 1018.11 1018.79 1019.07 1019.53 1019.62 1019.38 1018.43 1017.73 1018.21 1016.36 1017.73 1018.00 1020.08 1021.77 1022.88 1023.72 1024.86 1025.79 1026.53 1027.08 1027.31 1027.46 1027.71 1027.74 1027.68 1027.43 1027.41 1027.41 1027.44 1027.56 1027.73 1027.94 1028.90 1029.28 1029.63 1029.70 1029.94 1030.32 1030.49
1017.15 1017.17 1017.28 1017.61 1018.13 1018.88 1018.51 1018.71 1019.24 1019.44 1019.22 1017.52 1017.92 1018.04 1015.67 1016.83 1017.91 1018.85 1020.04 1021.77 1023.18 1024.51 1025.55 1026.35 1026.98 1027.38 1027.66 1027.90 1028.14 1028.17 1028.13 1028.00 1028.04 1028.01 1028.09 1028.46 1028.80 1029.24 1029.56 1029.94 1030.11 1030.49 1030.85 1031.07
1015.98 1016.41 1016.57 1016.72 1016.50 1017.09 1017.60 1017.18 1017.37 1017.75 1018.03 1017.54 1018.32 1016.75 1015.82 1017.13 1018.35 1019.29 1020.19 1021.55 1022.75 1023.95 1024.99 1025.79 1026.48 1027.01 1027.37 1027.76 1027.94 1028.07 1028.14 1028.10 1028.65 1029.01 1029.27 1029.46 1029.61 1029.73 1029.85 1030.29 1030.60 1031.27 1031.51 1031.73
1015.11 1015.64 1015.99 1016.46 1016.58 1016.82 1017.57 1017.28 1017.33 1017.94 1018.82 1017.79 1016.24 1016.11 1016.30 1017.52 1018.64 1019.69 1020.40 1021.51 1022.38 1023.33 1024.39 1025.22 1026.17 1026.75 1027.34 1027.80 1028.05 1028.22 1028.34 1028.68 1028.77 1029.37 1029.72 1029.87 1030.05 1030.11 1030.29 1030.49 1030.67 1031.26 1031.78 1032.01
1014.16 1015.26 1016.15 1016.81 1016.90 1017.16 1016.75 1016.31 1017.36 1017.42 1017.18 1016.67 1015.58 1015.63 1014.95 1016.56 1017.69 1019.34 1020.32 1020.98 1021.83 1022.86 1023.86 1024.69 1025.59 1026.22 1026.90 1027.52 1028.07 1028.49 1028.63 1028.73 1029.28 1029.61 1029.99 1030.24 1030.44 1030.49 1030.53 1030.60 1031.03 1031.57 1032.06 1032.14
1014.18 1015.13 1016.66 1017.02 1016.13 1015.53 1016.61 1015.97 1015.83 1015.52 1015.59 1015.41 1015.15 1013.94 1013.79 1014.62 1016.10 1017.59 1018.80 1019.79 1020.69 1021.72 1022.81 1023.82 1024.77 1025.69 1026.55 1027.31 1027.83 1028.21 1028.60 1028.89 1029.35 1029.56 1029.87 1030.34 1030.59 1030.68 1030.79 1030.88 1031.27 1031.82 1032.18 1032.27
1013.53 1014.60 1015.35 1015.44 1015.46 1015.60 1014.86 1014.51 1014.42 1014.09 1015.11 1015.24 1015.00 1013.29 1013.96 1014.80 1015.45 1016.50 1017.56 1018.79 1019.94 1021.06 1022.11 1023.03 1024.02 1024.95 1025.86 1026.62 1027.38 1027.92 1028.41 1028.77 1029.10 1029.46 1029.83 1030.08 1030.57 1030.45 1030.71 1030.96 1031.38 1031.88 1032.21 1032.47
1012.93 1014.22 1015.08 1015.21 1015.63 1015.58 1014.64 1014.01 1013.27 1013.26 1013.91 1013.30 1014.03 1012.71 1013.99 1014.95 1015.79 1016.37 1017.01 1018.09 1019.11 1020.23 1021.34 1022.41 1023.43 1024.23 1025.07 1025.94 1026.68 1027.32 1027.83 1028.31 1028.72 1029.29 1029.51 1029.84 1030.17 1030.34 1030.86 1031.17 1031.56 1032.03 1032.17 1032.27
1011.23 1012.20 1012.05 1011.11 1010.99 1011.98 1013.45 1013.09 1013.06 1012.94 1012.61 1011.38 1010.74 1012.14 1013.68 1014.20 1014.89 1015.83 1016.56 1017.49 1018.34 1019.23 1020.17 1021.34 1022.54 1023.42 1024.24 1025.27 1026.00 1026.45 1027.04 1027.72 1028.46 1028.91 1029.26 1029.83 1029.94 1030.34 1030.77 1031.14 1031.83 1032.03 1032.27 1032.41
1011.77 1011.59 1011.74 1011.12 1011.55 1011.61 1011.46 1011.50 1012.06 1011.50 1009.60 1010.27 1009.16 1010.97 1011.88 1012.70 1013.74 1014.51 1015.27 1016.58 1017.58 1018.53 1019.51 1020.37 1021.23 1022.36 1023.41 1024.45 1025.12 1025.76 1026.33 1027.02 1027.78 1028.35 1028.75 1029.19 1029.60 1030.17 1030.80 1031.05 1031.86 1032.25 1032.36 1032.58
1012.05 1011.42 1011.88 1011.38 1012.10 1012.24 1011.71 1011.02 1010.58 1009.87 1009.78 1009.92 1010.06 1010.46 1011.16 1012.22 1013.48 1014.44 1015.11 1016.17 1016.99 1017.62 1018.46 1019.55 1020.59 1021.64 1022.58 1023.44 1023.99 1024.71 1025.34 1026.21 1027.21 1027.73 1028.20 1028.68 1029.35 1030.10 1030.65 1031.16 1031.55 1032.08 1032.22 1032.48
1012.16 1011.85 1012.43 1011.15 1012.04 1013.26 1012.80 1008.64 1009.47 1009.15 1009.34 1009.64 1010.07 1010.22 1011.77 1013.07 1013.41 1013.89 1014.78 1015.70 1016.17 1016.93 1017.96 1018.99 1020.08 1020.97 1021.85 1022.50 1023.18 1023.93 1024.66 1025.64 1026.50 1027.07 1027.72 1028.43 1029.05 1029.87 1030.48 1030.99 1031.42 1031.89 1032.22 1032.45
1012.11 1012.24 1012.54 1012.51 1013.26 1012.68 1009.58 1010.18 1009.94 1009.93 1009.81 1010.26 1010.79 1011.40 1011.88 1012.58 1013.20 1013.87 1014.44 1015.03 1016.01 1016.99 1017.80 1018.72 1019.68 1020.55 1021.42 1021.97 1022.80 1023.53 1024.24 1025.08 1025.96 1026.64 1027.31 1027.97 1028.94 1029.76 1030.49 1030.92 1031.25 1031.61 1031.97 1032.25
1012.80 1012.81 1013.12 1013.12 1012.43 1011.29 1011.28 1011.05 1010.95 1010.04 1009.51 1010.26 1010.99 1012.09 1013.23 1013.75 1014.24 1014.76 1015.15 1015.43 1015.93 1016.85 1017.63 1018.35 1019.41 1020.28 1021.30 1021.82 1022.36 1023.22 1024.05 1024.78 1025.67 1026.23 1026.80 1027.73 1028.51 1029.52 1030.16 1030.69 1031.06 1031.44 1031.72 1031.95
1013.18 1013.05 1012.52 1012.81 1011.61 1010.81 1009.97 1010.68 1010.85 1010.90 1010.70 1010.46 1011.31 1012.69 1013.66 1014.20 1014.52 1014.20 1015.12 1015.84 1016.58 1017.21 1018.04 1018.55 1019.40 1020.20 1020.82 1021.56 1022.18 1022.97 1023.80 1024.66 1025.24 1025.56 1026.24 1027.42 1028.33 1029.20 1029.96 1030.52 1031.01 1031.37 1031.59 1031.69
1012.99 1013.03 1012.29 1011.95 1011.26 1011.04 1010.60 1011.22 1011.56 1011.95 1011.51 1011.02 1011.82 1013.04 1014.00 1014.06 1013.70 1014.13 1015.09 1016.17 1016.71 1017.25 1017.96 1018.79 1019.46 1020.05 1020.45 1021.32 1022.06 1022.82 1023.54 1024.15 1024.38 1025.52 1026.53 1027.54 1028.38 1029.14 1029.83 1030.45 1030.87 1031.27 1031.46 1031.57
1011.38 1011.84 1011.93 1012.13 1011.71 1011.24 1010.91 1012.23 1011.92 1011.48 1011.75 1012.09 1012.81 1013.46 1013.99 1014.34 1014.54 1014.94 1015.40 1016.04 1016.93 1017.66 1018.43 1019.02 1019.68 1020.30 1020.77 1021.45 1022.02 1022.68 1023.37 1023.68 1024.71 1025.74 1026.69 1027.60 1028.44 1029.15 1029.80 1030.43 1030.81 1031.10 1031.29 1031.39
1011.93 1011.16 1011.08 1011.14 1010.87 1010.64 1011.02 1011.49 1011.52 1011.87 1011.84 1012.68 1012.99 1013.53 1014.00 1014.74 1015.06 1015.48 1016.00 1016.37 1017.03 1017.84 1018.45 1019.11 1019.71 1020.14 1020.78 1021.28 1021.90 1022.56 1022.95 1024.04 1024.94 1025.86 1026.77 1027.69 1028.49 1029.17 1029.68 1030.15 1030.42 1030.55 1030.70 1030.65
1011.33 1011.45 1011.26 1011.17 1011.61 1011.86 1012.06 1012.35 1012.26 1012.36 1012.17 1012.55 1013.05 1013.86 1014.39 1014.78 1015.34 1015.90 1016.31 1016.58 1017.33 1017.91 1018.49 1019.06 1019.83 1020.35 1020.73 1021.17 1021.70 1022.25 1023.20 1024.03 1025.02 1025.80 1026.71 1027.61 1028.29 1028.84 1029.34 1029.60 1029.78 1029.91 1029.86 1029.87
1010.70 1011.14 1011.13 1011.20 1011.46 1011.94 1012.37 1012.45 1012.34 1012.55 1012.88 1013.23 1013.75 1014.24 1014.58 1015.05 1015.60 1016.01 1016.49 1016.97 1017.37 1017.87 1018.44 1018.92 1019.36 1019.71 1019.98 1020.88 1021.65 1022.43 1023.27 1024.04 1024.89 1025.76 1026.57 1027.19 1027.73 1028.20 1028.43 1028.84 1028.93 1029.04 1028.97 1029.10
1009.96 1010.12 1010.22 1010.09 1010.32 1010.61 1010.96 1010.74 1011.67 1012.48 1013.06 1013.51 1013.95 1014.72 1015.09 1015.44 1015.72 1016.21 1016.66 1016.93 1017.36 1017.79 1018.15 1018.71 1019.13 1019.54 1019.90 1020.80 1021.56 1022.41 1023.15 1023.84 1024.58 1025.49 1026.10 1026.50 1026.95 1027.49 1027.96 1028.20 1028.33 1028.34 1028.08 1027.86
Wind_Speed
3 8 13 19 17 4 2 4 7 3 2 4 11 13 8 4 5 6 6 6 7 6 5 5 6 6 7 8 9 9 10 8 7 8 9 9 11 10 11 11 15 14 13 13
5 14 15 1 9 9 7 9 13 4 3 5 9 14 7 6 4 5 7 7 7 8 8 7 8 8 9 9 10 10 11 10 8 7 8 8 9 10 10 10 13 14 14 14
14 2 9 9 8 11 12 14 11 9 3 4 5 14 11 4 5 7 7 7 7 9 10 8 9 10 10 10 9 9 10 11 10 12 10 11 11 10 9 10 10 12 14 14
10 4 7 10 12 12 15 13 8 7 5 9 3 7 5 8 10 11 11 11 11 9 7 7 8 9 8 9 8 10 10 10 9 8 9 12 10 11 9 9 9 10 13 14
6 10 11 11 8 13 5 6 10 7 11 5 8 7 3 6 12 14 15 14 12 10 9 7 7 7 7 7 8 9 11 12 11 11 11 11 13 10 8 8 11 11 11 12
5 2 5 5 3 8 15 9 6 3 3 9 15 13 8 8 10 17 18 17 16 14 11 8 6 5 7 6 7 8 11 12 11 12 13 14 14 11 8 8 8 7 7 7
6 9 4 4 6 3 6 10 5 6 7 8 3 9 11 6 9 16 24 22 18 15 13 11 9 8 7 7 8 8 10 12 11 13 13 13 13 12 11 8 7 7 6 6
12 9 16 14 18 11 17 18 7 9 7 3 2 9 5 3 6 2 17 19 19 17 14 13 12 11 10 9 8 9 10 12 11 11 11 10 10 7 8 8 7 6 6 6
10 8 3 5 4 12 10 12 3 5 2 2 7 5 6 6 6 7 15 19 20 18 17 16 13 11 10 9 9 9 10 11 11 11 9 9 9 9 9 9 8 6 5 5
5 5 1 4 4 1 6 12 6 6 6 7 4 5 8 11 14 10 15 19 19 18 18 15 14 13 11 10 9 9 10 11 11 10 9 8 9 8 8 8 8 7 6 5
5 3 4 4 13 18 7 9 5 3 4 4 3 6 4 10 17 20 20 21 22 20 19 17 15 13 12 11 11 11 11 12 11 10 10 10 8 8 7 7 7 6 5 4
11 2 7 14 1 2 11 8 15 8 7 4 2 5 4 4 10 16 17 19 20 20 19 17 15 15 14 14 13 13 12 12 12 11 10 10 9 8 7 7 6 5 5 4
14 6 4 3 6 4 10 12 13 5 3 12 8 4 4 3 6 12 14 17 19 19 19 17 16 16 15 14 14 14 13 13 12 11 11 10 9 8 7 7 6 5 4 3
18 11 16 19 5 13 13 17 15 13 10 11 19 8 9 10 11 12 13 16 18 20 20 18 16 16 15 15 15 15 14 13 13 12 12 10 9 8 7 6 5 4 3 2
14 15 21 25 6 7 8 20 22 25 29 19 16 18 17 17 16 17 17 16 17 19 19 20 18 16 15 15 15 14 14 15 14 13 12 11 9 8 7 7 5 4 3 1
6 13 21 22 10 9 8 17 27 29 25 23 10 14 12 14 7 11 15 16 18 18 19 17 16 15 15 16 16 14 16 15 13 13 12 10 10 9 8 7 5 4 3 1
13 15 9 22 12 3 8 28 21 21 17 21 21 14 9 7 13 14 14 16 17 16 16 15 14 14 13 14 14 16 13 12 13 11 10 10 9 9 8 7 5 4 3 2
9 18 6 3 7 12 7 1 14 18 15 14 2 6 15 10 8 8 10 15 13 13 13 11 10 10 10 10 12 11 11 11 11 10 9 9 9 8 8 7 5 4 4 4
1 6 5 6 8 3 1 5 9 15 16 12 15 7 6 6 6 3 7 8 12 11 9 8 7 8 8 10 10 10 10 10 9 10 10 10 10 8 8 6 5 4 4 4
3 3 6 4 7 10 1 3 2 3 7 10 13 10 12 8 7 7 12 9 8 8 7 7 7 5 7 7 8 9 9 9 11 10 10 10 9 8 8 7 6 4 4 5
6 3 6 5 4 4 3 5 3 8 4 3 8 10 13 7 3 5 12 7 5 6 7 5 7 8 8 7 8 9 8 11 8 7 8 9 8 8 7 6 4 4 4 5
9 9 5 3 4 10 9 5 8 2 3 5 6 9 10 4 6 11 12 10 9 8 6 7 6 8 6 7 8 8 10 6 8 9 9 9 8 6 5 6 5 5 5 6
5 2 4 7 2 3 10 3 2 1 6 5 7 7 9 10 8 11 9 8 8 8 6 4 8 7 6 7 8 9 6 8 9 8 8 8 7 6 6 6 6 5 6 5
3 2 2 3 3 3 7 2 2 2 3 5 3 5 7 6 9 8 6 7 6 5 6 5 6 7 8 8 8 6 8 9 9 9 9 8 7 7 6 5 5 5 5 5
2 8 6 2 2 3 2 7 5 6 2 5 4 5 7 6 5 8 7 5 6 6 4 5 8 9 10 8 8 7 8 10 10 8 8 8 7 7 7 7 6 7 7 6
6 7 5 4 9 6 8 17 13 8 8 7 7 3 3 6 8 7 8 9 5 6 4 5 8 8 7 6 7 8 8 10 10 9 8 7 7 7 6 6 6 12 13 13
Wind_Direction
146 206 215 214 214 233 172 209 239 166 139 231 243 255 193 175 171 167 159 143 127 111 97 80 73 72 80 70 71 66 74 76 103 95 92 81 76 70 63 55 47 45 45 48
161 230 228 187 192 196 215 237 243 266 190 236 252 256 234 194 199 199 170 155 144 131 109 94 87 82 73 70 68 68 69 70 76 89 94 88 84 70 72 67 57 51 52 48
213 169 187 165 169 200 224 225 232 256 156 231 272 263 217 182 173 164 178 151 151 140 129 113 90 77 75 67 66 72 75 78 83 99 106 106 103 91 79 64 59 50 51 50
239 161 154 188 210 200 234 215 222 210 220 257 225 281 203 177 183 190 179 179 166 155 141 118 103 88 82 79 80 82 79 79 75 85 94 99 98 97 86 83 80 64 52 50
195 175 188 202 204 187 258 155 200 203 226 260 194 258 172 173 205 194 187 181 173 166 153 134 106 84 72 74 81 88 90 88 88 93 99 98 97 99 99 92 85 75 63 55
268 35 198 213 93 185 134 108 78 95 193 247 226 218 198 195 214 181 186 184 176 171 162 147 128 125 106 98 94 96 98 93 96 97 94 97 104 108 107 100 91 81 72 65
206 216 170 174 128 109 187 160 189 219 208 246 150 209 254 193 182 191 182 182 177 171 170 164 163 156 143 132 124 117 111 100 98 98 98 101 104 107 104 98 89 89 78 61
202 227 186 190 214 185 196 190 190 213 205 173 132 226 232 87 123 160 182 174 171 175 175 177 175 172 166 160 148 135 124 114 106 101 104 107 109 104 98 93 90 83 78 64
191 239 187 194 148 172 184 215 169 107 2 235 201 233 232 154 167 166 175 175 180 179 179 181 180 180 173 172 165 147 133 125 126 131 130 123 119 116 113 108 102 97 89 80
193 253 216 158 142 108 213 149 179 225 210 233 210 250 223 200 195 182 182 188 184 182 183 182 182 182 182 178 162 159 154 149 151 147 142 137 132 129 122 113 106 104 98 82
130 211 138 143 208 188 163 190 206 205 204 224 241 231 212 192 185 185 193 193 187 185 183 184 186 186 183 178 177 174 171 165 168 163 156 153 147 137 127 121 116 113 108 94
185 168 198 203 119 277 235 222 194 204 185 243 298 246 161 190 188 187 187 189 188 187 188 189 185 184 185 186 185 185 183 181 179 171 169 165 159 151 144 136 133 131 123 103
168 189 190 235 217 188 215 202 216 225 60 201 190 199 167 179 214 198 181 182 185 187 189 190 190 192 192 191 189 191 190 192 182 180 179 174 173 166 160 152 144 138 128 98
165 176 206 225 234 156 209 204 204 195 225 200 230 200 199 192 198 192 184 186 187 190 191 193 194 198 195 195 195 195 193 192 189 190 188 188 183 179 168 153 151 146 133 133
184 222 218 238 237 205 210 197 194 208 222 210 227 219 194 189 195 195 193 184 182 192 195 198 198 198 197 198 197 198 199 194 192 195 195 199 184 176 170 163 160 157 153 131
201 227 224 236 217 217 219 212 207 213 218 235 229 226 188 192 158 178 189 181 192 196 197 197 198 197 200 201 200 197 201 195 192 199 204 195 184 176 178 170 166 176 170 189
185 203 190 228 204 216 263 223 204 209 213 216 219 228 149 179 190 195 185 189 197 193 191 188 192 197 202 203 198 201 194 187 192 197 198 189 181 183 183 175 176 187 202 241
195 207 204 156 135 216 262 24 205 206 196 209 208 169 174 185 178 166 182 187 179 178 174 185 189 194 198 197 198 192 184 183 188 194 187 180 181 185 182 182 190 194 212 235
37 167 148 179 218 2 282 196 186 181 227 201 208 150 146 120 116 181 186 179 178 174 174 173 176 180 179 191 186 175 171 178 183 197 196 186 179 178 183 190 200 206 225 245
152 338 228 167 206 216 155 172 175 115 265 195 188 157 151 152 179 200 175 165 154 150 159 168 162 163 180 181 158 163 177 179 203 200 192 180 177 170 175 186 196 207 221 250
155 180 214 197 221 278 169 168 189 162 259 102 168 156 157 190 207 131 148 157 152 161 175 159 169 183 193 154 157 180 172 204 204 154 156 166 168 167 175 177 192 207 231 251
174 165 184 147 218 248 146 107 185 132 43 131 142 162 179 128 142 148 153 155 163 171 176 186 175 202 176 164 167 183 199 175 147 154 162 164 160 169 171 181 197 218 228 241
219 220 186 201 194 20 163 65 149 233 144 179 151 170 167 161 171 165 167 158 170 186 191 174 200 193 173 174 184 192 193 155 152 153 155 159 162 177 177 194 212 227 226 244
213 193 214 183 89 98 194 72 206 239 162 144 130 138 160 164 171 179 167 167 174 187 205 175 180 206 204 189 189 204 153 157 151 158 166 168 178 187 194 208 216 229 236 242
137 155 151 78 85 108 192 234 217 204 142 115 117 156 183 175 180 182 191 198 192 205 193 176 201 212 219 168 190 169 163 154 164 163 170 182 195 198 204 218 223 227 234 233
187 158 176 188 184 171 198 210 197 189 186 179 164 175 208 188 206 182 203 206 197 205 185 198 213 213 199 177 174 168 162 163 157 173 183 191 195 199 212 222 230 235 247 250